FW5161 Weather Reports


time (UTC)temp
C
wind
direction
speed
KPH
gust
KPH
rain 1hr
cm
rain 24hr
cm
rain mn
cm
humidity
%
barometer
mb
20260503213233 22 59 3.2 9.7 0.00 0.00 0.00 46 1012.1
20260503212731 22 61 3.2 9.7 0.00 0.00 0.00 46 1012.1
20260503212230 21 41 3.2 9.7 0.00 0.00 0.00 46 1012.1
20260503211730 21 105 3.2 6.4 0.00 0.00 0.00 48 1012.2
20260503210733 20 56 3.2 9.7 0.00 0.00 0.00 48 1012.3
20260503210229 20 83 3.2 9.7 0.00 0.00 0.00 50 1012.4
20260503205729 20 328 3.2 8.0 0.00 0.00 0.00 52 1012.5
20260503205229 21 319 3.2 8.0 0.00 0.00 0.00 53 1012.9
20260503205003 21 337 3.2 8.0 0.00 0.00 0.00 48 1012.8
20260503204229 21 355 3.2 8.0 0.00 0.00 0.00 46 1012.8
20260503203732 21 38 3.2 6.4 0.00 0.00 0.00 51 1012.9
20260503202959 21 330 3.2 6.4 0.00 0.00 0.00 51 1013.1
20260503202230 20 41 3.2 8.0 0.00 0.00 0.00 48 1013.1
20260503201729 20 95 3.2 8.0 0.00 0.00 0.00 49 1013.2
20260503201229 20 42 3.2 6.4 0.00 0.00 0.00 52 1013.3
20260503200729 19 301 4.8 8.0 0.00 0.00 0.00 57 1013.4
20260503200501 19 32 3.2 8.0 0.00 0.00 0.00 59 1013.5
20260503195729 19 309 3.2 9.7 0.00 0.00 0.00 58 1013.5
20260503195229 20 87 3.2 9.7 0.00 0.00 0.00 58 1013.7
20260503194734 19 353 3.2 8.0 0.00 0.00 0.00 60 1013.6
20260503194233 18 309 3.2 11.3 0.00 0.00 0.00 60 1013.6
20260503193727 18 52 4.8 11.3 0.00 0.00 0.00 61 1013.6
20260503193222 19 55 3.2 11.3 0.00 0.00 0.00 59 1013.5
20260503192721 20 266 3.2 8.0 0.00 0.00 0.00 57 1013.6
20260503192221 20 60 3.2 9.7 0.00 0.00 0.00 57 1013.6
20260503191721 19 41 4.8 12.9 0.00 0.00 0.00 56 1013.7
20260503191219 19 295 4.8 12.9 0.00 0.00 0.00 58 1013.7
20260503190717 20 32 4.8 11.3 0.00 0.00 0.00 57 1013.6
20260503190215 19 74 4.8 11.3 0.00 0.00 0.00 58 1013.6
20260503185715 19 0 4.8 11.3 0.00 0.00 0.00 59 1013.6
20260503185214 19 11 3.2 11.3 0.00 0.00 0.00 58 1013.6
20260503184715 19 22 3.2 11.3 0.00 0.00 0.00 59 1013.8
20260503184215 18 51 3.2 11.3 0.00 0.00 0.00 59 1013.8
20260503183715 18 122 3.2 9.7 0.00 0.00 0.00 60 1013.8
20260503183215 18 98 3.2 9.7 0.00 0.00 0.00 59 1013.9
20260503182716 18 11 3.2 8.0 0.00 0.00 0.00 59 1014.0
20260503182214 18 45 3.2 11.3 0.00 0.00 0.00 60 1014.0
20260503181716 17 12 4.8 12.9 0.00 0.00 0.00 61 1014.0
20260503181215 18 67 4.8 12.9 0.00 0.00 0.00 62 1014.0
20260503180708 18 104 4.8 16.1 0.00 0.00 0.00 64 1014.0
20260503175709 17 62 3.2 11.3 0.00 0.00 0.00 64 1014.1
20260503175209 17 253 3.2 19.3 0.00 0.00 0.00 65 1014.2
20260503174707 17 115 3.2 19.3 0.00 0.00 0.00 66 1014.2
20260503174207 17 94 3.2 12.9 0.00 0.00 0.00 66 1014.1
20260503173715 16 109 4.8 12.9 0.00 0.00 0.00 65 1014.1
20260503173216 16 130 4.8 11.3 0.00 0.00 0.00 66 1014.2
20260503172715 16 20 3.2 11.3 0.00 0.00 0.00 66 1014.3
20260503172213 16 126 3.2 11.3 0.00 0.00 0.00 67 1014.3
20260503171707 16 145 4.8 11.3 0.00 0.00 0.00 67 1014.3
20260503171207 16 113 4.8 11.3 0.00 0.00 0.00 68 1014.4
20260503170706 16 118 3.2 11.3 0.00 0.00 0.00 67 1014.3
20260503170206 16 91 3.2 12.9 0.00 0.00 0.00 68 1014.3
20260503160201 15 84 3.2 8.0 0.00 0.00 0.00 74 1014.6
20260503150655 13 119 6.4 11.3 0.00 0.00 0.00 78 1014.7
20260503150409 13 107 4.8 11.3 0.00 0.00 0.00 78 1014.7
20260503140128 14 191 6.4 16.1 0.00 0.00 0.00 77 1014.6
20260503131353 14 120 3.2 12.9 0.00 0.00 0.00 75 1014.4
20260503130623 14 330 3.2 12.9 0.00 0.00 0.00 75 1014.4
20260503130347 14 125 3.2 12.9 0.00 0.00 0.00 75 1014.3
20260503120122 15 134 4.8 12.9 0.00 0.00 0.00 73 1014.5
20260503110604 15 115 6.4 17.7 0.00 0.00 0.00 71 1014.5
20260503110104 15 157 6.4 14.5 0.00 0.00 0.00 71 1014.6
20260503100103 15 107 3.2 14.5 0.00 0.00 0.00 69 1014.3
20260503090323 17 139 3.2 12.9 0.00 0.00 0.00 55 1014.5
20260503081530 18 285 4.8 12.9 0.00 0.00 0.00 53 1014.6
20260503081028 18 91 6.4 12.9 0.00 0.00 0.00 52 1014.6
20260503080529 18 13 4.8 12.9 0.00 0.00 0.00 50 1014.4
20260503072529 20 243 3.2 8.0 0.00 0.00 0.00 44 1014.2
20260503072030 20 82 3.2 12.9 0.00 0.00 0.00 44 1014.3
20260503071529 19 76 4.8 12.9 0.00 0.00 0.00 44 1014.2
20260503071035 20 110 3.2 11.3 0.00 0.00 0.00 42 1014.1
20260503070531 20 154 3.2 6.4 0.00 0.00 0.00 41 1014.1
20260503060253 21 188 3.2 6.4 0.00 0.00 0.00 35 1013.8
20260503054517 20 306 3.2 11.3 0.00 0.00 0.00 38 1013.8
20260503054016 20 174 3.2 11.3 0.00 0.00 0.00 37 1013.8
20260503053518 21 141 4.8 11.3 0.00 0.00 0.00 36 1013.8
20260503053014 21 122 4.8 11.3 0.00 0.00 0.00 36 1013.9
20260503052515 20 249 3.2 9.7 0.00 0.00 0.00 39 1013.8
20260503052249 21 145 4.8 9.7 0.00 0.00 0.00 36 1013.9
20260503051514 21 183 3.2 12.9 0.00 0.00 0.00 37 1013.9
20260503051014 21 328 1.6 12.9 0.00 0.00 0.00 36 1013.8
20260503050516 21 46 1.6 11.3 0.00 0.00 0.00 37 1013.9
20260503050014 21 359 4.8 14.5 0.00 0.00 0.00 36 1013.9
20260503045513 21 187 4.8 14.5 0.00 0.00 0.00 36 1013.9
20260503045012 21 170 4.8 14.5 0.00 0.00 0.00 36 1013.8
20260503044515 21 214 3.2 14.5 0.00 0.00 0.00 37 1013.8
20260503044248 21 164 1.6 6.4 0.00 0.00 0.00 37 1013.8
20260503043511 21 249 1.6 6.4 0.00 0.00 0.00 37 1013.7
20260503043245 21 50 3.2 9.7 0.00 0.00 0.00 38 1013.7
20260503042508 21 135 4.8 9.7 0.00 0.00 0.00 37 1013.6
20260503042010 22 151 3.2 9.7 0.00 0.00 0.00 36 1013.6
20260503041506 21 118 3.2 8.0 0.00 0.00 0.00 36 1013.5
20260503041005 21 153 3.2 6.4 0.00 0.00 0.00 36 1013.6
20260503040503 21 176 3.2 11.3 0.00 0.00 0.00 36 1013.5
20260503040004 21 317 3.2 11.3 0.00 0.00 0.00 37 1013.4
20260503035733 21 69 3.2 9.7 0.00 0.00 0.00 37 1013.4
20260503035002 21 324 3.2 9.7 0.00 0.00 0.00 39 1013.2
20260503034502 21 117 4.8 9.7 0.00 0.00 0.00 39 1013.2
20260503034001 21 126 3.2 6.4 0.00 0.00 0.00 39 1013.2
20260503033501 21 151 1.6 6.4 0.00 0.00 0.00 38 1013.1
20260503033001 21 178 1.6 6.4 0.00 0.00 0.00 38 1013.1
20260503032501 21 162 1.6 9.7 0.00 0.00 0.00 39 1013.1
20260503032002 22 300 1.6 9.7 0.00 0.00 0.00 37 1013.0
20260503031732 21 137 1.6 4.8 0.00 0.00 0.00 37 1013.0
20260503031002 21 122 3.2 6.4 0.00 0.00 0.00 40 1013.0
20260503030733 21 139 3.2 8.0 0.00 0.00 0.00 40 1013.0
20260503025501 22 156 3.2 8.0 0.00 0.00 0.00 38 1013.0
20260503025233 21 119 3.2 6.4 0.00 0.00 0.00 41 1013.0
20260503024501 21 120 1.6 4.8 0.00 0.00 0.00 40 1012.9
20260503024013 22 122 3.2 4.8 0.00 0.00 0.00 41 1012.9
20260503023507 22 122 3.2 6.4 0.00 0.00 0.00 42 1012.9
20260503023000 22 133 3.2 8.0 0.00 0.00 0.00 41 1012.9
20260503022720 22 106 3.2 8.0 0.00 0.00 0.00 41 1013.0
20260503021948 23 93 1.6 6.4 0.00 0.00 0.00 37 1012.9
20260503021442 23 93 1.6 6.4 0.00 0.00 0.00 38 1013.0
20260503020942 22 93 1.6 8.0 0.00 0.00 0.00 42 1013.1
20260503020711 22 92 1.6 8.0 0.00 0.00 0.00 42 1013.1
20260503015941 22 53 1.6 8.0 0.00 0.00 0.00 38 1013.2
20260503015447 23 50 1.6 8.0 0.00 0.00 0.00 40 1013.1
20260503015216 22 68 1.6 6.4 0.00 0.00 0.00 40 1013.2
20260503014709 23 97 3.2 8.0 0.00 0.00 0.00 37 1013.2
20260503013940 22 68 1.6 8.0 0.00 0.00 0.00 41 1013.1
20260503013440 23 109 3.2 6.4 0.00 0.00 0.00 39 1013.2
20260503012938 22 107 3.2 8.0 0.00 0.00 0.00 39 1013.2
20260503012700 23 165 3.2 8.0 0.00 0.00 0.00 41 1013.3
20260503011938 22 128 1.6 4.8 0.00 0.00 0.00 43 1013.3
20260503010934 23 249 1.6 6.4 0.00 0.00 0.00 38 1013.5
20260503010657 22 101 3.2 6.4 0.00 0.00 0.00 44 1013.5
20260503005935 23 101 3.2 9.7 0.00 0.00 0.00 43 1013.6
20260503005433 22 93 4.8 9.7 0.00 0.00 0.00 45 1013.6
20260503004933 23 64 4.8 9.7 0.00 0.00 0.00 43 1013.8
20260503004438 21 102 4.8 14.5 0.00 0.00 0.00 47 1013.8
20260503003933 21 93 4.8 14.5 0.00 0.00 0.00 48 1013.9
20260503003435 21 90 6.4 14.5 0.00 0.00 0.00 48 1013.9
20260503002932 20 101 4.8 14.5 0.00 0.00 0.00 49 1014.0
20260503002431 20 124 4.8 12.9 0.00 0.00 0.00 52 1014.1
20260503001929 21 106 4.8 9.7 0.00 0.00 0.00 52 1014.0
20260503001657 20 95 3.2 8.0 0.00 0.00 0.00 49 1014.1
20260503000930 21 70 4.8 12.9 0.00 0.00 0.00 50 1014.1
20260503000430 20 76 4.8 12.9 0.00 0.00 0.00 52 1014.1
20260502235930 21 201 4.8 11.3 0.00 0.00 0.00 48 1014.1
20260502235429 21 51 3.2 11.3 0.00 0.00 0.00 49 1014.1
20260502235149 21 66 3.2 9.7 0.00 0.00 0.00 49 1014.2
20260502234429 21 77 4.8 9.7 0.00 0.00 0.00 50 1014.2
20260502233929 21 67 4.8 12.9 0.00 0.00 0.00 53 1014.3
20260502233429 21 85 4.8 12.9 0.00 0.00 0.00 52 1014.4
20260502232929 21 172 3.2 12.9 0.00 0.00 0.00 49 1014.4
20260502232423 20 75 3.2 12.9 0.00 0.00 0.00 54 1014.5
20260502232143 21 63 4.8 12.9 0.00 0.00 0.00 50 1014.6
20260502231411 20 93 4.8 11.3 0.00 0.00 0.00 53 1014.7
20260502231132 20 89 4.8 12.9 0.00 0.00 0.00 49 1014.7
20260502230406 20 222 4.8 12.9 0.00 0.00 0.00 51 1014.7
20260502230128 20 50 4.8 11.3 0.00 0.00 0.00 52 1014.8
20260502225406 20 270 4.8 19.3 0.00 0.00 0.00 55 1014.9
20260502224906 20 49 4.8 19.3 0.00 0.00 0.00 54 1014.9
20260502224406 20 357 3.2 8.0 0.00 0.00 0.00 54 1015.1
20260502223906 20 307 3.2 8.0 0.00 0.00 0.00 54 1015.1
20260502223632 20 134 4.8 12.9 0.00 0.00 0.00 55 1015.2
20260502222904 19 64 4.8 12.9 0.00 0.00 0.00 58 1015.3
20260502222628 20 320 4.8 17.7 0.00 0.00 0.00 57 1015.3
20260502221901 19 57 4.8 17.7 0.00 0.00 0.00 54 1015.4
20260502221401 20 304 4.8 12.9 0.00 0.00 0.00 58 1015.5
20260502220901 19 308 4.8 12.9 0.00 0.00 0.00 57 1015.5
20260502220404 19 134 4.8 12.9 0.00 0.00 0.00 56 1015.4
20260502215906 18 25 4.8 12.9 0.00 0.00 0.00 59 1015.5
20260502215622 19 272 4.8 12.9 0.00 0.00 0.00 59 1015.7
20260502214901 18 58 4.8 14.5 0.00 0.00 0.00 60 1015.7
20260502214401 19 318 4.8 14.5 0.00 0.00 0.00 58 1015.7
20260502213857 18 16 4.8 12.9 0.00 0.00 0.00 58 1015.8
20260502213351 18 188 4.8 14.5 0.00 0.00 0.00 59 1015.9